KN7D Weather Reports


time (UTC)temp
F
wind
direction
speed
knots
gust
knots
rain 1hr
in
rain 24hr
in
rain mn
in
humidity
%
barometer
mb
20260502161524 63 24 0.9 3.5 0.00 0.00 0.00 33 1019.2
20260502151514 58 49 0.9 3.5 0.00 0.00 0.00 41 1019.3
20260502123049 43 61 0.9 1.7 0.00 0.00 0.00 49 1018.6
20260502121551 43 25 0.9 1.7 0.00 0.00 0.00 49 1018.6
20260502114545 44 22 0.9 1.7 0.00 0.00 0.00 49 1018.5
20260502113039 44 88 0.9 2.6 0.00 0.00 0.00 49 1018.6
20260502111545 45 97 0.9 4.3 0.00 0.00 0.00 50 1018.6
20260502110037 45 73 0.9 3.5 0.00 0.00 0.00 50 1018.7
20260502104536 45 66 0.9 2.6 0.00 0.00 0.00 48 1018.6
20260502103043 46 61 2.6 4.3 0.00 0.00 0.00 48 1018.6
20260502101537 46 58 0.9 2.6 0.00 0.00 0.00 48 1018.5
20260502091530 45 63 1.7 3.5 0.00 0.00 0.00 49 1018.5
20260502071522 46 84 0.0 1.7 0.00 0.00 0.00 48 1018.5
20260502070021 47 68 0.9 2.6 0.00 0.00 0.00 48 1018.4
20260502064515 48 42 1.7 2.6 0.00 0.00 0.00 47 1018.5
20260502063016 49 212 0.0 0.9 0.00 0.00 0.00 49 1018.5
20260502061509 49 188 0.9 2.6 0.00 0.00 0.00 47 1018.6
20260502060007 49 57 1.7 2.6 0.00 0.00 0.00 48 1018.5
20260502054508 49 66 0.9 1.7 0.00 0.00 0.00 48 1018.4
20260502053006 49 63 0.9 2.6 0.00 0.00 0.00 48 1018.4
20260502051506 50 62 0.9 1.7 0.00 0.00 0.00 48 1018.4
20260502050008 50 65 0.9 2.6 0.00 0.00 0.00 48 1018.4
20260502044505 51 69 0.9 1.7 0.00 0.00 0.00 48 1018.4
20260502043003 51 59 0.9 1.7 0.00 0.00 0.00 46 1018.3
20260502041502 52 61 0.9 1.7 0.00 0.00 0.00 48 1018.2
20260502040002 53 78 0.0 1.7 0.00 0.00 0.00 48 1018.1
20260502034502 54 74 0.0 1.7 0.00 0.00 0.00 46 1017.9
20260502033001 54 71 0.9 1.7 0.00 0.00 0.00 47 1017.7
20260502031502 56 40 0.9 1.7 0.00 0.00 0.00 48 1017.5
20260502024600 59 327 0.0 0.9 0.00 0.00 0.00 41 1017.2
20260502023102 60 323 0.0 1.7 0.00 0.00 0.00 39 1017.2
20260502021559 62 299 0.9 2.6 0.00 0.00 0.00 38 1017.1
20260502020058 63 298 0.9 3.5 0.00 0.00 0.00 36 1017.0
20260502014559 63 243 0.9 5.2 0.00 0.00 0.00 35 1016.9
20260502013058 63 250 0.9 4.3 0.00 0.00 0.00 35 1016.8
20260502011602 64 257 2.6 6.1 0.00 0.00 0.00 35 1016.7
20260502010056 67 240 2.6 4.3 0.00 0.00 0.00 32 1016.6
20260502004608 68 277 1.7 4.3 0.00 0.00 0.00 26 1016.7
20260502003055 67 22 0.9 3.5 0.00 0.00 0.00 28 1016.7
20260502001553 67 271 2.6 5.2 0.00 0.00 0.00 27 1016.8
20260502000100 67 288 2.6 5.2 0.00 0.00 0.00 27 1016.7
20260501234552 66 307 2.6 6.1 0.00 0.00 0.00 29 1016.8
20260501233050 66 256 3.5 7.0 0.00 0.00 0.00 29 1016.8
20260501231552 66 267 2.6 6.1 0.00 0.00 0.00 30 1016.8
20260501230048 65 289 2.6 7.0 0.00 0.00 0.00 28 1016.9
20260501224548 66 266 2.6 7.8 0.00 0.00 0.00 28 1016.9
20260501223053 66 300 2.6 6.1 0.00 0.00 0.00 27 1017.1
20260501221545 66 282 2.6 5.2 0.00 0.00 0.00 29 1017.3
20260501220050 65 289 2.6 5.2 0.00 0.00 0.00 31 1017.4
20260501214541 64 265 3.5 7.8 0.00 0.00 0.00 31 1017.5
20260501213059 64 261 4.3 7.8 0.00 0.00 0.00 30 1017.7
20260501211540 64 261 2.6 6.1 0.00 0.00 0.00 29 1017.9
20260501210039 64 257 3.5 7.8 0.00 0.00 0.00 31 1017.9
20260501204542 64 251 2.6 7.0 0.00 0.00 0.00 31 1017.9
20260501203038 63 296 3.5 8.7 0.00 0.00 0.00 32 1018.0
20260501201538 63 253 3.5 7.8 0.00 0.00 0.00 31 1017.9
20260501200036 64 242 4.3 7.0 0.00 0.00 0.00 28 1017.9
20260501194541 63 340 2.6 5.2 0.00 0.00 0.00 28 1018.0
20260501193035 63 249 1.7 4.3 0.00 0.00 0.00 28 1018.2
20260501191534 64 328 1.7 5.2 0.00 0.00 0.00 25 1018.4
20260501190030 62 291 3.5 7.0 0.00 0.00 0.00 27 1018.5
20260501184531 61 216 2.6 5.2 0.00 0.00 0.00 29 1018.6
20260501183028 62 273 2.6 6.1 0.00 0.00 0.00 28 1018.8
20260501181528 61 280 0.9 4.3 0.00 0.00 0.00 31 1018.8
20260501180036 60 215 1.7 4.3 0.00 0.00 0.00 29 1018.9
20260501174527 62 223 0.9 3.5 0.00 0.00 0.00 30 1019.0
20260501173025 62 146 0.9 6.1 0.00 0.00 0.00 32 1019.2
20260501171525 61 103 2.6 8.7 0.00 0.00 0.00 27 1019.2
20260501170019 60 113 0.9 7.0 0.00 0.00 0.00 28 1019.2
20260501164533 58 252 0.9 7.0 0.00 0.00 0.00 33 1019.2
20260501163015 57 190 0.9 7.0 0.00 0.00 0.00 33 1019.1